| time (UTC) | temp F | wind direction | speed knots | gust knots | rain 1hr in | rain 24hr in | rain mn in | humidity % | barometer mb |
| 20260831182017 | 68 | 225 | 6.1 | 13.0 | 0.00 | 0.22 | 0.22 | 59 | 1016.1 |
| 20260831181517 | 39 | 50 | 7.8 | 8.7 | 0.00 | 0.20 | 0.20 | 28 | 1058.7 |
| 20260831181036 | 68 | 225 | 7.0 | 14.8 | 0.00 | 0.22 | 0.22 | 58 | 1015.9 |
| 20260831180518 | 39 | 48 | 7.8 | 8.7 | 0.00 | 0.20 | 0.20 | 28 | 1058.2 |
| 20260831180037 | 69 | 225 | 7.0 | 14.8 | 0.00 | 0.22 | 0.22 | 57 | 1015.8 |
| 20260831175517 | 38 | 45 | 7.8 | 9.6 | 0.00 | 0.20 | 0.20 | 27 | 1057.7 |
| 20260831175018 | 69 | 225 | 7.8 | 12.2 | 0.00 | 0.22 | 0.22 | 57 | 1015.9 |
| 20260831174517 | 37 | 42 | 7.8 | 9.6 | 0.00 | 0.20 | 0.20 | 27 | 1057.2 |
| 20260831174017 | 69 | 270 | 6.1 | 12.2 | 0.00 | 0.22 | 0.22 | 57 | 1016.0 |
| 20260831173517 | 37 | 40 | 7.8 | 9.6 | 0.00 | 0.20 | 0.20 | 27 | 1056.7 |
| 20260831173016 | 69 | 225 | 7.0 | 13.0 | 0.00 | 0.22 | 0.22 | 57 | 1016.0 |
| 20260831172517 | 36 | 37 | 7.8 | 9.6 | 0.00 | 0.20 | 0.20 | 26 | 1056.2 |
| 20260831172016 | 69 | 225 | 5.2 | 10.4 | 0.00 | 0.22 | 0.22 | 57 | 1015.8 |
| 20260831171517 | 35 | 35 | 7.8 | 9.6 | 0.00 | 0.20 | 0.20 | 26 | 1055.7 |
| 20260831171016 | 70 | 225 | 6.1 | 11.3 | 0.00 | 0.22 | 0.22 | 56 | 1015.7 |
| 20260831170517 | 35 | 33 | 7.8 | 9.6 | 0.00 | 0.20 | 0.20 | 25 | 1055.3 |
| 20260831170037 | 70 | 225 | 5.2 | 12.2 | 0.00 | 0.22 | 0.22 | 56 | 1015.7 |
| 20260831165517 | 34 | 31 | 7.8 | 9.6 | 0.00 | 0.20 | 0.20 | 25 | 1054.8 |
| 20260831165016 | 70 | 270 | 6.1 | 9.6 | 0.00 | 0.22 | 0.22 | 57 | 1016.0 |
| 20260831164517 | 34 | 28 | 7.8 | 9.6 | 0.00 | 0.20 | 0.20 | 25 | 1054.4 |
| 20260831164017 | 72 | 248 | 7.0 | 13.9 | 0.00 | 0.22 | 0.22 | 55 | 1016.0 |
| 20260831163517 | 33 | 26 | 7.8 | 9.6 | 0.00 | 0.20 | 0.20 | 24 | 1054.0 |
| 20260831163017 | 72 | 225 | 4.3 | 7.8 | 0.00 | 0.22 | 0.22 | 56 | 1016.0 |
| 20260831162517 | 33 | 24 | 7.8 | 9.6 | 0.00 | 0.20 | 0.20 | 24 | 1053.6 |
| 20260831162017 | 73 | 248 | 4.3 | 7.8 | 0.00 | 0.22 | 0.22 | 56 | 1015.8 |
| 20260831161517 | 32 | 22 | 7.8 | 9.6 | 0.00 | 0.20 | 0.20 | 24 | 1053.2 |
| 20260831161016 | 72 | 203 | 6.1 | 11.3 | 0.00 | 0.22 | 0.22 | 56 | 1015.8 |
| 20260831160517 | 32 | 21 | 7.8 | 9.6 | 0.00 | 0.20 | 0.20 | 23 | 1052.8 |
| 20260831160016 | 72 | 225 | 6.1 | 11.3 | 0.00 | 0.22 | 0.22 | 55 | 1015.7 |
| 20260831155517 | 32 | 19 | 7.8 | 9.6 | 0.00 | 0.20 | 0.20 | 23 | 1052.5 |
| 20260831155016 | 73 | 248 | 5.2 | 10.4 | 0.00 | 0.22 | 0.22 | 55 | 1015.7 |
| 20260831154537 | 31 | 17 | 8.7 | 9.6 | 0.00 | 0.20 | 0.20 | 23 | 1052.1 |
| 20260831154117 | 73 | 225 | 7.8 | 15.6 | 0.00 | 0.22 | 0.22 | 53 | 1015.7 |
| 20260831153517 | 31 | 15 | 8.7 | 10.4 | 0.00 | 0.20 | 0.20 | 23 | 1051.8 |
| 20260831153017 | 73 | 270 | 7.0 | 11.3 | 0.00 | 0.22 | 0.22 | 54 | 1015.5 |
| 20260831152516 | 31 | 14 | 8.7 | 10.4 | 0.00 | 0.20 | 0.20 | 22 | 1051.5 |
| 20260831152018 | 74 | 225 | 7.8 | 16.5 | 0.00 | 0.22 | 0.22 | 52 | 1015.6 |
| 20260831151517 | 30 | 12 | 8.7 | 10.4 | 0.00 | 0.20 | 0.20 | 22 | 1051.2 |
| 20260831151016 | 74 | 225 | 7.0 | 13.0 | 0.00 | 0.22 | 0.22 | 51 | 1015.6 |
| 20260831150517 | 30 | 11 | 8.7 | 10.4 | 0.00 | 0.20 | 0.20 | 22 | 1051.0 |
| 20260831150016 | 74 | 203 | 7.0 | 17.4 | 0.00 | 0.22 | 0.22 | 52 | 1015.5 |
| 20260831145517 | 30 | 10 | 8.7 | 10.4 | 0.00 | 0.20 | 0.20 | 22 | 1050.7 |
| 20260831145016 | 73 | 225 | 9.6 | 18.2 | 0.00 | 0.22 | 0.22 | 52 | 1015.5 |
| 20260831144517 | 30 | 8 | 8.7 | 10.4 | 0.00 | 0.20 | 0.20 | 21 | 1050.4 |
| 20260831144016 | 74 | 270 | 7.8 | 12.2 | 0.00 | 0.22 | 0.22 | 54 | 1015.5 |
| 20260831143517 | 30 | 7 | 8.7 | 10.4 | 0.00 | 0.20 | 0.20 | 21 | 1050.2 |
| 20260831143016 | 75 | 225 | 7.8 | 12.2 | 0.00 | 0.22 | 0.22 | 54 | 1015.6 |
| 20260831142517 | 30 | 6 | 8.7 | 10.4 | 0.00 | 0.20 | 0.20 | 21 | 1050.0 |
| 20260831142016 | 75 | 225 | 6.1 | 10.4 | 0.00 | 0.22 | 0.22 | 56 | 1015.7 |
| 20260831141537 | 30 | 5 | 8.7 | 10.4 | 0.00 | 0.20 | 0.20 | 21 | 1049.8 |
| 20260831141036 | 74 | 248 | 7.8 | 13.0 | 0.00 | 0.22 | 0.22 | 56 | 1015.8 |
| 20260831140517 | 30 | 4 | 8.7 | 10.4 | 0.00 | 0.20 | 0.20 | 21 | 1049.6 |
| 20260831140016 | 73 | 225 | 6.1 | 9.6 | 0.00 | 0.22 | 0.22 | 59 | 1015.8 |
| 20260831135517 | 30 | 4 | 8.7 | 10.4 | 0.00 | 0.20 | 0.20 | 21 | 1049.5 |
| 20260831135016 | 75 | 203 | 5.2 | 10.4 | 0.00 | 0.22 | 0.22 | 57 | 1015.7 |
| 20260831134537 | 30 | 3 | 8.7 | 10.4 | 0.00 | 0.20 | 0.20 | 20 | 1049.3 |
| 20260831134016 | 74 | 203 | 7.0 | 12.2 | 0.00 | 0.22 | 0.22 | 58 | 1015.8 |
| 20260831133517 | 30 | 2 | 8.7 | 10.4 | 0.00 | 0.20 | 0.20 | 20 | 1049.2 |
| 20260831133016 | 73 | 225 | 6.1 | 13.0 | 0.00 | 0.22 | 0.22 | 59 | 1015.7 |
| 20260831132517 | 31 | 2 | 8.7 | 10.4 | 0.00 | 0.20 | 0.20 | 20 | 1049.1 |
| 20260831132016 | 72 | 225 | 6.1 | 13.9 | 0.00 | 0.22 | 0.22 | 58 | 1015.7 |
| 20260831131517 | 31 | 1 | 8.7 | 10.4 | 0.00 | 0.20 | 0.20 | 20 | 1049.0 |
| 20260831131036 | 73 | 203 | 5.2 | 10.4 | 0.00 | 0.22 | 0.22 | 59 | 1015.9 |
| 20260831130517 | 31 | 1 | 8.7 | 10.4 | 0.00 | 0.20 | 0.20 | 20 | 1048.9 |
| 20260831130016 | 71 | 270 | 4.3 | 9.6 | 0.00 | 0.22 | 0.22 | 60 | 1015.8 |
| 20260831125517 | 31 | 0 | 8.7 | 10.4 | 0.00 | 0.20 | 0.20 | 20 | 1048.9 |
| 20260831125016 | 70 | 225 | 7.0 | 11.3 | 0.00 | 0.22 | 0.22 | 62 | 1015.8 |
| 20260831124517 | 32 | 0 | 8.7 | 10.4 | 0.00 | 0.20 | 0.20 | 20 | 1048.8 |
| 20260831124016 | 71 | 248 | 7.0 | 11.3 | 0.00 | 0.22 | 0.22 | 61 | 1015.9 |
| 20260831123517 | 32 | 0 | 8.7 | 10.4 | 0.00 | 0.20 | 0.20 | 20 | 1048.8 |
| 20260831123016 | 71 | 225 | 5.2 | 11.3 | 0.00 | 0.22 | 0.22 | 61 | 1015.8 |
| 20260831122517 | 33 | 0 | 8.7 | 10.4 | 0.00 | 0.20 | 0.20 | 20 | 1048.8 |
| 20260831122016 | 71 | 248 | 6.1 | 9.6 | 0.00 | 0.22 | 0.22 | 60 | 1015.8 |
| 20260831121517 | 33 | 0 | 8.7 | 10.4 | 0.00 | 0.20 | 0.20 | 20 | 1048.8 |
| 20260831121016 | 71 | 203 | 7.0 | 13.0 | 0.00 | 0.22 | 0.22 | 62 | 1015.8 |
| 20260831120517 | 34 | 0 | 8.7 | 10.4 | 0.00 | 0.20 | 0.20 | 20 | 1048.8 |
| 20260831120016 | 72 | 225 | 8.7 | 15.6 | 0.00 | 0.22 | 0.22 | 61 | 1015.9 |
| 20260831115557 | 34 | 0 | 8.7 | 10.4 | 0.00 | 0.20 | 0.20 | 20 | 1048.9 |
| 20260831115036 | 72 | 248 | 7.0 | 12.2 | 0.00 | 0.22 | 0.22 | 60 | 1015.9 |
| 20260831114516 | 35 | 1 | 8.7 | 10.4 | 0.00 | 0.20 | 0.20 | 20 | 1048.9 |
| 20260831114056 | 71 | 225 | 7.8 | 12.2 | 0.00 | 0.22 | 0.22 | 60 | 1015.8 |
| 20260831113517 | 35 | 1 | 8.7 | 10.4 | 0.00 | 0.20 | 0.20 | 20 | 1049.0 |
| 20260831113016 | 71 | 248 | 7.0 | 12.2 | 0.00 | 0.22 | 0.22 | 64 | 1015.8 |
| 20260831112517 | 36 | 1 | 8.7 | 10.4 | 0.00 | 0.20 | 0.20 | 20 | 1049.1 |
| 20260831112036 | 72 | 225 | 7.8 | 13.0 | 0.00 | 0.22 | 0.22 | 62 | 1016.1 |
| 20260831111517 | 36 | 2 | 8.7 | 10.4 | 0.00 | 0.20 | 0.20 | 20 | 1049.2 |
| 20260831111015 | 71 | 225 | 8.7 | 15.6 | 0.00 | 0.22 | 0.22 | 63 | 1015.8 |
| 20260831110517 | 37 | 3 | 8.7 | 10.4 | 0.00 | 0.20 | 0.20 | 20 | 1049.3 |
| 20260831110016 | 71 | 225 | 7.8 | 13.0 | 0.00 | 0.22 | 0.22 | 63 | 1015.8 |
| 20260831105517 | 38 | 3 | 8.7 | 10.4 | 0.00 | 0.20 | 0.20 | 21 | 1049.4 |
| 20260831105016 | 71 | 225 | 9.6 | 15.6 | 0.00 | 0.22 | 0.22 | 62 | 1015.8 |
| 20260831104517 | 38 | 4 | 8.7 | 10.4 | 0.00 | 0.20 | 0.20 | 21 | 1049.6 |
| 20260831104016 | 71 | 225 | 7.0 | 12.2 | 0.00 | 0.22 | 0.22 | 67 | 1015.8 |
| 20260831103517 | 39 | 5 | 8.7 | 10.4 | 0.00 | 0.20 | 0.20 | 21 | 1049.8 |
| 20260831103018 | 70 | 270 | 6.1 | 13.9 | 0.00 | 0.22 | 0.22 | 68 | 1015.8 |
| 20260831102517 | 40 | 6 | 8.7 | 10.4 | 0.00 | 0.20 | 0.20 | 21 | 1050.0 |
| 20260831102017 | 69 | 225 | 8.7 | 17.4 | 0.00 | 0.22 | 0.22 | 70 | 1015.8 |
| 20260831101517 | 41 | 7 | 8.7 | 10.4 | 0.00 | 0.20 | 0.20 | 21 | 1050.2 |
| 20260831101018 | 69 | 248 | 5.2 | 16.5 | 0.00 | 0.22 | 0.22 | 70 | 1015.9 |
| 20260831100537 | 41 | 8 | 8.7 | 10.4 | 0.00 | 0.20 | 0.20 | 21 | 1050.4 |
| 20260831100018 | 69 | 270 | 7.0 | 13.9 | 0.00 | 0.22 | 0.22 | 72 | 1015.8 |
| 20260831095517 | 42 | 9 | 8.7 | 10.4 | 0.00 | 0.20 | 0.20 | 22 | 1050.6 |
| 20260831095038 | 68 | 270 | 7.8 | 14.8 | 0.00 | 0.22 | 0.22 | 72 | 1016.0 |
| 20260831094537 | 43 | 11 | 8.7 | 10.4 | 0.00 | 0.20 | 0.20 | 22 | 1050.9 |
| 20260831094017 | 68 | 225 | 7.8 | 16.5 | 0.00 | 0.22 | 0.22 | 75 | 1016.0 |
| 20260831093517 | 44 | 12 | 8.7 | 10.4 | 0.00 | 0.20 | 0.20 | 22 | 1051.2 |
| 20260831093037 | 67 | 270 | 5.2 | 12.2 | 0.00 | 0.22 | 0.22 | 78 | 1015.9 |
| 20260831092517 | 45 | 14 | 8.7 | 10.4 | 0.00 | 0.20 | 0.20 | 22 | 1051.5 |
| 20260831092018 | 67 | 270 | 6.1 | 13.0 | 0.00 | 0.22 | 0.22 | 76 | 1015.9 |
| 20260831091517 | 46 | 15 | 8.7 | 10.4 | 0.00 | 0.20 | 0.20 | 23 | 1051.8 |
| 20260831091036 | 68 | 293 | 5.2 | 10.4 | 0.00 | 0.22 | 0.22 | 79 | 1016.0 |
| 20260831090517 | 46 | 17 | 8.7 | 9.6 | 0.00 | 0.20 | 0.20 | 23 | 1052.1 |
| 20260831090038 | 67 | 248 | 7.0 | 13.0 | 0.00 | 0.22 | 0.22 | 82 | 1015.9 |
| 20260831085517 | 47 | 18 | 7.8 | 9.6 | 0.00 | 0.20 | 0.20 | 23 | 1052.4 |
| 20260831085017 | 66 | 270 | 6.1 | 11.3 | 0.00 | 0.22 | 0.22 | 86 | 1015.7 |
| 20260831084517 | 48 | 20 | 7.8 | 9.6 | 0.00 | 0.20 | 0.20 | 23 | 1052.8 |
| 20260831084038 | 65 | 270 | 9.6 | 15.6 | 0.00 | 0.22 | 0.22 | 88 | 1015.8 |
| 20260831083517 | 49 | 22 | 7.8 | 9.6 | 0.00 | 0.20 | 0.20 | 24 | 1053.1 |
| 20260831083038 | 64 | 248 | 7.0 | 14.8 | 0.00 | 0.22 | 0.22 | 91 | 1015.7 |
| 20260831082517 | 50 | 24 | 7.8 | 9.6 | 0.00 | 0.20 | 0.20 | 24 | 1053.5 |
| 20260831082037 | 64 | 270 | 5.2 | 13.9 | 0.00 | 0.22 | 0.22 | 92 | 1015.6 |
| 20260831081517 | 51 | 26 | 7.8 | 9.6 | 0.00 | 0.20 | 0.20 | 24 | 1053.9 |
| 20260831081017 | 63 | 248 | 6.1 | 11.3 | 0.00 | 0.22 | 0.22 | 93 | 1015.5 |
| 20260831080517 | 52 | 28 | 7.8 | 9.6 | 0.00 | 0.20 | 0.20 | 25 | 1054.3 |
| 20260831080018 | 62 | 248 | 5.2 | 11.3 | 0.00 | 0.22 | 0.22 | 94 | 1015.4 |
| 20260831075517 | 53 | 30 | 7.8 | 9.6 | 0.00 | 0.20 | 0.20 | 25 | 1054.7 |
| 20260831075017 | 61 | 248 | 6.1 | 13.9 | 0.00 | 0.22 | 0.22 | 94 | 1015.3 |
| 20260831074517 | 53 | 32 | 7.8 | 9.6 | 0.00 | 0.20 | 0.20 | 25 | 1055.2 |
| 20260831074018 | 61 | 270 | 7.0 | 14.8 | 0.00 | 0.22 | 0.22 | 94 | 1015.4 |
| 20260831073517 | 54 | 35 | 7.8 | 9.6 | 0.00 | 0.20 | 0.20 | 26 | 1055.6 |
| 20260831073018 | 61 | 270 | 5.2 | 12.2 | 0.00 | 0.22 | 0.22 | 94 | 1015.2 |
| 20260831072516 | 55 | 37 | 7.8 | 9.6 | 0.00 | 0.20 | 0.20 | 26 | 1056.1 |
| 20260831072017 | 61 | 248 | 7.8 | 13.0 | 0.00 | 0.22 | 0.22 | 94 | 1015.1 |
| 20260831071517 | 56 | 39 | 7.8 | 9.6 | 0.00 | 0.20 | 0.20 | 27 | 1056.6 |
| 20260831071017 | 61 | 225 | 6.1 | 12.2 | 0.00 | 0.22 | 0.22 | 94 | 1015.0 |
| 20260831070517 | 57 | 42 | 7.8 | 9.6 | 0.00 | 0.20 | 0.20 | 27 | 1057.1 |
| 20260831070017 | 61 | 225 | 5.2 | 10.4 | 0.00 | 0.22 | 0.22 | 94 | 1014.9 |
| 20260831065517 | 58 | 44 | 7.8 | 9.6 | 0.00 | 0.20 | 0.20 | 27 | 1057.6 |
| 20260831065017 | 61 | 225 | 5.2 | 9.6 | 0.00 | 0.22 | 0.22 | 94 | 1015.0 |
| 20260831064517 | 58 | 47 | 7.8 | 8.7 | 0.00 | 0.20 | 0.20 | 28 | 1058.1 |
| 20260831064017 | 61 | 225 | 4.3 | 7.8 | 0.00 | 0.22 | 0.22 | 94 | 1014.9 |
| 20260831063517 | 59 | 50 | 7.8 | 8.7 | 0.00 | 0.20 | 0.20 | 28 | 1058.6 |
| 20260831063017 | 60 | 203 | 3.5 | 7.8 | 0.00 | 0.22 | 0.22 | 94 | 1014.8 |
| 20260831062517 | 60 | 52 | 7.8 | 8.7 | 0.00 | 0.20 | 0.20 | 29 | 1059.2 |
| 20260831062037 | 60 | 203 | 4.3 | 7.0 | 0.00 | 0.22 | 0.22 | 94 | 1014.8 |
| 20260831061517 | 61 | 55 | 7.0 | 8.7 | 0.00 | 0.20 | 0.20 | 29 | 1059.7 |
| 20260831061017 | 60 | 180 | 2.6 | 4.3 | 0.00 | 0.22 | 0.22 | 94 | 1014.8 |
| 20260831060517 | 61 | 58 | 7.0 | 8.7 | 0.00 | 0.20 | 0.20 | 30 | 1060.3 |
| 20260831060017 | 59 | 158 | 2.6 | 4.3 | 0.00 | 0.22 | 0.22 | 94 | 1014.6 |
| 20260831055517 | 62 | 61 | 7.0 | 8.7 | 0.00 | 0.20 | 0.20 | 30 | 1060.9 |
| 20260831055017 | 59 | 158 | 3.5 | 6.1 | 0.00 | 0.22 | 0.22 | 94 | 1014.5 |
| 20260831054517 | 63 | 64 | 7.0 | 8.7 | 0.00 | 0.20 | 0.20 | 31 | 1061.4 |
| 20260831054017 | 59 | 113 | 1.7 | 2.6 | 0.00 | 0.22 | 0.22 | 94 | 1014.4 |
| 20260831053517 | 63 | 67 | 7.0 | 8.7 | 0.00 | 0.20 | 0.20 | 31 | 1062.0 |
| 20260831053037 | 59 | 158 | 1.7 | 3.5 | 0.01 | 0.22 | 0.22 | 94 | 1014.6 |
| 20260831052517 | 64 | 70 | 7.0 | 8.7 | 0.00 | 0.20 | 0.20 | 32 | 1062.7 |
| 20260831052037 | 59 | 225 | 1.7 | 2.6 | 0.01 | 0.22 | 0.22 | 94 | 1014.7 |
| 20260831051517 | 65 | 73 | 7.0 | 8.7 | 0.00 | 0.20 | 0.20 | 32 | 1063.3 |
| 20260831051017 | 59 | 158 | 0.9 | 2.6 | 0.01 | 0.22 | 0.22 | 94 | 1014.6 |
| 20260831050517 | 65 | 76 | 7.0 | 7.8 | 0.00 | 0.20 | 0.20 | 33 | 1063.9 |
| 20260831050017 | 59 | 158 | 0.9 | 3.5 | 0.02 | 0.22 | 0.22 | 94 | 1014.4 |
| 20260831045517 | 66 | 80 | 7.0 | 7.8 | 0.00 | 0.20 | 0.20 | 33 | 1064.5 |
| 20260831045017 | 59 | 158 | 0.9 | 1.7 | 0.06 | 0.22 | 0.22 | 94 | 1014.4 |
| 20260831044517 | 66 | 83 | 7.0 | 7.8 | 0.00 | 0.20 | 0.20 | 34 | 1065.2 |
| 20260831044017 | 59 | 113 | 0.9 | 3.5 | 0.06 | 0.22 | 0.22 | 94 | 1014.3 |
| 20260831043537 | 67 | 86 | 7.0 | 7.8 | 0.00 | 0.20 | 0.20 | 34 | 1065.9 |
| 20260831043017 | 59 | 113 | 0.9 | 1.7 | 0.21 | 0.21 | 0.21 | 93 | 1014.3 |
| 20260831042517 | 67 | 90 | 7.0 | 7.8 | 0.00 | 0.20 | 0.20 | 35 | 1066.5 |
| 20260831042017 | 59 | 158 | 1.7 | 5.2 | 0.21 | 0.21 | 0.21 | 93 | 1014.4 |
| 20260831041537 | 68 | 93 | 6.1 | 7.8 | 0.00 | 0.20 | 0.20 | 36 | 1067.2 |
| 20260831041017 | 59 | 135 | 1.7 | 4.3 | 0.21 | 0.21 | 0.21 | 93 | 1014.6 |
| 20260831040517 | 68 | 97 | 6.1 | 7.8 | 0.00 | 0.20 | 0.20 | 36 | 1067.9 |
| 20260831040017 | 59 | 113 | 2.6 | 5.2 | 0.20 | 0.20 | 0.20 | 93 | 1014.5 |
| 20260831035517 | 68 | 100 | 6.1 | 7.8 | 0.00 | 0.20 | 0.20 | 37 | 1068.6 |
| 20260831035017 | 58 | 158 | 1.7 | 4.3 | 0.17 | 0.17 | 0.17 | 93 | 1014.7 |
| 20260831034517 | 69 | 104 | 6.1 | 7.8 | 0.00 | 0.20 | 0.20 | 37 | 1069.3 |
| 20260831034037 | 58 | 203 | 5.2 | 8.7 | 0.16 | 0.16 | 0.16 | 93 | 1015.1 |
| 20260831033517 | 69 | 107 | 6.1 | 7.0 | 0.00 | 0.20 | 0.20 | 38 | 1070.0 |
| 20260831033017 | 56 | 180 | 5.2 | 13.9 | 0.00 | 0.00 | 0.00 | 92 | 1013.7 |
| 20260831032517 | 69 | 111 | 6.1 | 7.0 | 0.00 | 0.20 | 0.20 | 38 | 1070.7 |
| 20260831032016 | 56 | 0.0 | 0.0 | 0.00 | 0.00 | 0.00 | 92 | 1012.9 | |
| 20260831031517 | 70 | 114 | 6.1 | 7.0 | 0.00 | 0.20 | 0.20 | 39 | 1071.4 |
| 20260831031016 | 56 | 0.0 | 0.0 | 0.00 | 0.00 | 0.00 | 92 | 1012.9 | |
| 20260831030517 | 70 | 118 | 6.1 | 7.0 | 0.00 | 0.20 | 0.20 | 40 | 1072.1 |
| 20260831030017 | 56 | 0.0 | 0.0 | 0.00 | 0.00 | 0.00 | 92 | 1012.8 | |
| 20260831025517 | 70 | 122 | 6.1 | 7.0 | 0.00 | 0.20 | 0.20 | 40 | 1072.9 |
| 20260831025017 | 55 | 0.0 | 0.0 | 0.00 | 0.00 | 0.00 | 92 | 1013.1 | |
| 20260831024517 | 70 | 126 | 6.1 | 7.0 | 0.00 | 0.20 | 0.20 | 41 | 1073.6 |
| 20260831024037 | 55 | 0.0 | 0.0 | 0.00 | 0.00 | 0.00 | 92 | 1013.4 | |
| 20260831023517 | 70 | 129 | 5.2 | 7.0 | 0.00 | 0.20 | 0.20 | 42 | 1074.4 |
| 20260831023016 | 55 | 0.0 | 0.0 | 0.00 | 0.00 | 0.00 | 92 | 1013.4 | |
| 20260831022617 | 70 | 133 | 5.2 | 7.0 | 0.00 | 0.20 | 0.20 | 42 | 1075.1 |
| 20260831022017 | 55 | 0.0 | 0.0 | 0.00 | 0.00 | 0.00 | 92 | 1013.7 | |
| 20260831021517 | 70 | 137 | 5.2 | 6.1 | 0.00 | 0.20 | 0.20 | 43 | 1075.9 |
| 20260831021037 | 55 | 0.0 | 0.0 | 0.00 | 0.00 | 0.00 | 92 | 1013.5 | |
| 20260831020516 | 70 | 141 | 5.2 | 6.1 | 0.00 | 0.20 | 0.20 | 43 | 1076.6 |
| 20260831020017 | 55 | 0.0 | 0.0 | 0.00 | 0.00 | 0.00 | 92 | 1013.5 | |
| 20260831015517 | 70 | 145 | 5.2 | 6.1 | 0.00 | 0.20 | 0.20 | 44 | 1077.4 |
| 20260831015016 | 54 | 0.0 | 0.0 | 0.00 | 0.00 | 0.00 | 91 | 1013.7 | |
| 20260831014517 | 70 | 148 | 5.2 | 6.1 | 0.01 | 0.20 | 0.20 | 45 | 1078.1 |
| 20260831014037 | 54 | 0.0 | 0.0 | 0.00 | 0.00 | 0.00 | 91 | 1013.7 | |
| 20260831013517 | 70 | 152 | 5.2 | 6.1 | 0.02 | 0.20 | 0.20 | 45 | 1078.9 |
| 20260831013016 | 54 | 0.0 | 0.0 | 0.00 | 0.00 | 0.00 | 91 | 1014.1 | |
| 20260831012517 | 69 | 156 | 5.2 | 6.1 | 0.03 | 0.20 | 0.20 | 46 | 1079.7 |
| 20260831012036 | 55 | 0.0 | 0.0 | 0.00 | 0.00 | 0.00 | 91 | 1014.1 | |
| 20260831011517 | 69 | 160 | 5.2 | 6.1 | 0.05 | 0.20 | 0.20 | 47 | 1080.4 |
| 20260831011016 | 55 | 0.0 | 0.0 | 0.00 | 0.00 | 0.00 | 91 | 1014.0 | |
| 20260831010517 | 69 | 164 | 4.3 | 6.1 | 0.06 | 0.20 | 0.20 | 47 | 1081.2 |
| 20260831010016 | 55 | 0.0 | 0.0 | 0.00 | 0.00 | 0.00 | 91 | 1014.4 | |
| 20260831005517 | 69 | 168 | 4.3 | 5.2 | 0.07 | 0.20 | 0.20 | 48 | 1082.0 |
| 20260831005016 | 55 | 0.0 | 0.0 | 0.00 | 0.00 | 0.00 | 91 | 1014.4 | |
| 20260831004517 | 68 | 172 | 4.3 | 5.2 | 0.07 | 0.20 | 0.19 | 49 | 1082.8 |
| 20260831004016 | 55 | 0.0 | 0.0 | 0.00 | 0.00 | 0.00 | 90 | 1014.6 | |
| 20260831003517 | 68 | 176 | 4.3 | 5.2 | 0.07 | 0.20 | 0.18 | 49 | 1083.5 |
| 20260831003016 | 55 | 0.0 | 0.0 | 0.00 | 0.00 | 0.00 | 90 | 1014.5 | |
| 20260831002537 | 67 | 180 | 4.3 | 5.2 | 0.07 | 0.20 | 0.17 | 50 | 1084.3 |
| 20260831002016 | 56 | 0.0 | 0.0 | 0.00 | 0.00 | 0.00 | 90 | 1014.7 | |
| 20260831001517 | 67 | 184 | 4.3 | 5.2 | 0.06 | 0.20 | 0.15 | 51 | 1085.1 |
| 20260831001016 | 56 | 0.0 | 0.0 | 0.00 | 0.00 | 0.00 | 90 | 1014.8 | |
| 20260831000517 | 66 | 187 | 4.3 | 5.2 | 0.06 | 0.20 | 0.14 | 51 | 1085.9 |
| 20260831000036 | 56 | 0.0 | 0.0 | 0.00 | 0.00 | 0.00 | 90 | 1015.0 | |
| 20260830235537 | 66 | 191 | 4.3 | 5.2 | 0.06 | 0.20 | 0.13 | 52 | 1086.6 |
| 20260830235036 | 56 | 0.0 | 0.0 | 0.00 | 0.00 | 0.00 | 90 | 1014.9 | |
| 20260830234517 | 65 | 195 | 4.3 | 5.2 | 0.07 | 0.20 | 0.12 | 53 | 1087.4 |
| 20260830234016 | 56 | 0.0 | 0.0 | 0.00 | 0.00 | 0.00 | 89 | 1014.8 | |
| 20260830233537 | 65 | 199 | 3.5 | 4.3 | 0.07 | 0.20 | 0.11 | 53 | 1088.2 |
| 20260830233016 | 57 | 0.0 | 0.0 | 0.00 | 0.00 | 0.00 | 89 | 1014.8 | |
| 20260830232517 | 64 | 203 | 3.5 | 4.3 | 0.07 | 0.20 | 0.10 | 54 | 1089.0 |
| 20260830232016 | 57 | 0.0 | 0.0 | 0.00 | 0.00 | 0.00 | 89 | 1015.0 | |
| 20260830231517 | 64 | 207 | 3.5 | 4.3 | 0.07 | 0.20 | 0.09 | 55 | 1089.7 |
| 20260830231016 | 57 | 0.0 | 0.0 | 0.00 | 0.00 | 0.00 | 89 | 1015.1 | |
| 20260830230517 | 63 | 211 | 3.5 | 4.3 | 0.07 | 0.20 | 0.08 | 55 | 1090.5 |
| 20260830230016 | 57 | 0.0 | 0.0 | 0.00 | 0.00 | 0.00 | 88 | 1015.3 | |
| 20260830225517 | 62 | 215 | 3.5 | 4.3 | 0.07 | 0.20 | 0.07 | 56 | 1091.3 |
| 20260830225016 | 58 | 0.0 | 0.0 | 0.00 | 0.00 | 0.00 | 88 | 1015.2 | |
| 20260830224517 | 62 | 219 | 3.5 | 4.3 | 0.05 | 0.20 | 0.05 | 56 | 1092.0 |
| 20260830224016 | 58 | 0.0 | 0.0 | 0.00 | 0.00 | 0.00 | 88 | 1015.2 | |
| 20260830223517 | 61 | 222 | 3.5 | 4.3 | 0.04 | 0.20 | 0.04 | 57 | 1092.8 |
| 20260830223016 | 58 | 0.0 | 0.0 | 0.00 | 0.00 | 0.00 | 87 | 1015.3 | |
| 20260830222517 | 60 | 226 | 3.5 | 3.5 | 0.03 | 0.20 | 0.03 | 58 | 1093.5 |
| 20260830222016 | 58 | 0.0 | 0.0 | 0.00 | 0.00 | 0.00 | 86 | 1015.3 | |
| 20260830221517 | 59 | 230 | 3.5 | 3.5 | 0.02 | 0.20 | 0.02 | 58 | 1094.3 |
| 20260830221136 | 59 | 0.0 | 0.0 | 0.00 | 0.00 | 0.00 | 86 | 1015.3 | |
| 20260830220517 | 59 | 234 | 3.5 | 3.5 | 0.01 | 0.20 | 0.01 | 59 | 1095.0 |
| 20260830220016 | 59 | 0.0 | 0.0 | 0.00 | 0.00 | 0.00 | 85 | 1015.2 | |
| 20260830215517 | 58 | 238 | 2.6 | 3.5 | 0.00 | 0.20 | 0.20 | 60 | 1095.8 |
| 20260830215019 | 60 | 0.0 | 0.0 | 0.00 | 0.00 | 0.00 | 84 | 1015.2 | |
| 20260830214517 | 57 | 241 | 2.6 | 3.5 | 0.00 | 0.20 | 0.20 | 60 | 1096.5 |
| 20260830214037 | 61 | 0.0 | 0.0 | 0.00 | 0.00 | 0.00 | 83 | 1015.2 | |
| 20260830213517 | 56 | 245 | 2.6 | 3.5 | 0.00 | 0.20 | 0.20 | 61 | 1097.2 |
| 20260830213017 | 61 | 0.0 | 0.0 | 0.00 | 0.00 | 0.00 | 83 | 1015.3 | |
| 20260830212518 | 55 | 249 | 2.6 | 3.5 | 0.00 | 0.20 | 0.20 | 61 | 1098.0 |
| 20260830212017 | 62 | 0.0 | 0.0 | 0.00 | 0.00 | 0.00 | 82 | 1015.3 | |
| 20260830211517 | 54 | 252 | 2.6 | 3.5 | 0.00 | 0.20 | 0.20 | 62 | 1098.7 |
| 20260830211017 | 62 | 180 | 0.9 | 1.7 | 0.00 | 0.00 | 0.00 | 82 | 1015.4 |
| 20260830210517 | 54 | 256 | 2.6 | 3.5 | 0.00 | 0.20 | 0.20 | 63 | 1099.4 |
| 20260830210017 | 63 | 0.0 | 0.9 | 0.00 | 0.00 | 0.00 | 81 | 1015.4 | |
| 20260830205537 | 53 | 259 | 2.6 | 2.6 | 0.00 | 0.20 | 0.20 | 63 | 1100.1 |
| 20260830205017 | 64 | 0.0 | 0.0 | 0.00 | 0.00 | 0.00 | 80 | 1015.3 | |
| 20260830204517 | 52 | 263 | 2.6 | 2.6 | 0.00 | 0.20 | 0.20 | 64 | 1100.8 |
| 20260830204017 | 64 | 180 | 0.9 | 2.6 | 0.00 | 0.00 | 0.00 | 80 | 1015.2 |
| 20260830203537 | 51 | 266 | 2.6 | 2.6 | 0.00 | 0.20 | 0.20 | 64 | 1101.5 |
| 20260830203037 | 64 | 180 | 1.7 | 2.6 | 0.00 | 0.00 | 0.00 | 79 | 1015.3 |
| 20260830202517 | 50 | 270 | 2.6 | 2.6 | 0.00 | 0.20 | 0.20 | 65 | 1102.1 |
| 20260830202057 | 64 | 180 | 1.7 | 3.5 | 0.00 | 0.00 | 0.00 | 79 | 1015.3 |
| 20260830201517 | 49 | 273 | 1.7 | 2.6 | 0.00 | 0.20 | 0.20 | 66 | 1102.8 |
| 20260830201017 | 65 | 180 | 1.7 | 3.5 | 0.00 | 0.00 | 0.00 | 79 | 1015.5 |
| 20260830200517 | 48 | 276 | 1.7 | 2.6 | 0.00 | 0.20 | 0.20 | 66 | 1103.5 |
| 20260830200017 | 65 | 180 | 1.7 | 2.6 | 0.00 | 0.00 | 0.00 | 78 | 1015.6 |
| 20260830195517 | 47 | 280 | 1.7 | 2.6 | 0.00 | 0.20 | 0.20 | 67 | 1104.1 |
| 20260830195017 | 65 | 180 | 1.7 | 1.7 | 0.00 | 0.00 | 0.00 | 78 | 1015.5 |
| 20260830194517 | 47 | 283 | 1.7 | 2.6 | 0.00 | 0.20 | 0.20 | 67 | 1104.8 |
| 20260830194017 | 66 | 180 | 1.7 | 2.6 | 0.00 | 0.00 | 0.00 | 77 | 1015.5 |
| 20260830193517 | 46 | 286 | 1.7 | 1.7 | 0.00 | 0.20 | 0.20 | 68 | 1105.4 |
| 20260830193016 | 66 | 180 | 0.9 | 1.7 | 0.00 | 0.00 | 0.00 | 76 | 1015.3 |
| 20260830192517 | 45 | 289 | 1.7 | 1.7 | 0.00 | 0.20 | 0.20 | 68 | 1106.0 |
| 20260830192017 | 67 | 180 | 0.9 | 2.6 | 0.00 | 0.00 | 0.00 | 76 | 1015.4 |
| 20260830191517 | 44 | 292 | 1.7 | 1.7 | 0.00 | 0.20 | 0.20 | 69 | 1106.6 |
| 20260830191017 | 67 | 180 | 1.7 | 3.5 | 0.00 | 0.00 | 0.00 | 75 | 1015.4 |
| 20260830190517 | 43 | 295 | 1.7 | 1.7 | 0.00 | 0.20 | 0.20 | 69 | 1107.2 |
| 20260830190017 | 67 | 180 | 1.7 | 1.7 | 0.00 | 0.00 | 0.00 | 74 | 1015.3 |
| 20260830185537 | 42 | 298 | 1.7 | 1.7 | 0.00 | 0.20 | 0.20 | 70 | 1107.8 |
| 20260830185016 | 68 | 180 | 0.9 | 1.7 | 0.00 | 0.00 | 0.00 | 73 | 1015.3 |
| 20260830184517 | 42 | 301 | 1.7 | 1.7 | 0.00 | 0.20 | 0.20 | 70 | 1108.4 |
| 20260830184017 | 68 | 180 | 0.9 | 2.6 | 0.00 | 0.00 | 0.00 | 73 | 1015.1 |
| 20260830183517 | 41 | 304 | 1.7 | 1.7 | 0.00 | 0.20 | 0.20 | 71 | 1109.0 |
| 20260830183036 | 69 | 180 | 0.9 | 1.7 | 0.00 | 0.00 | 0.00 | 72 | 1015.1 |
| 20260830182517 | 40 | 307 | 0.9 | 1.7 | 0.00 | 0.20 | 0.20 | 71 | 1109.5 |